Location: Newark
(45.2500°N, 7.5833°E)
Time: 12:12:45
(UTC+00:00)

A-11 Canister half - Pass Details

Date: 28 January 2020
Orbit: 1524 x 1684 km, 47.3° (Epoch: 19 February)

Event Time Altitude Azimuth Distance (km) Brightness Sun altitude
Rises 17:12:02 0° 246° (WSW) 4,668 14.0 -7.6°
Reaches altitude 10° 17:15:02 10° 246° (WSW) 3,692 12.7 -8.1°
Maximum altitude 17:24:22 85° 160° (SSE) 1,559 9.0 -9.7°
Enters shadow 17:33:08 13° 73° (ENE) 3,522 10.2 -11.2°
Drops below altitude 10° 17:33:59 10° 73° (ENE) 3,791 - -11.3°
Sets 17:37:07 0° 73° (ENE) 4,799 - -11.9°
